Location: Carella
(45.8167°N, 9.2667°E)
Time: 09:30:40
(UTC+00:00)

SL-08 RB Rocket - Pass Details

Date: 30 March 2020
Orbit: 646 x 684 km, 97.8° (Epoch: 24 May)

Event Time Altitude Azimuth Distance (km) Brightness Sun altitude
Exits shadow 18:34:25 - 140° (SE) 2,437 6.1 -8.6°
Reaches altitude 10° 18:35:24 10° 136° (SE) 2,065 5.7 -8.7°
Maximum altitude 18:39:32 37° 69° (ENE) 1,025 4.3 -9.4°
Drops below altitude 10° 18:43:45 10° 2° (N) 2,101 6.5 -10.1°
Sets 18:46:07 0° 355° (N) 3,025 7.4 -10.5°
